Tracking 20715 objects as of 26-May-2020
HD Live streaming from Space Station
objects crossing your sky now

AMC-9 (GE-12)

Track AMC-9 (GE-12) now!
AMC-9 (GE-12) is classified as:


NORAD ID: 27820
Int'l Code: 2003-024A
Perigee: 36,067.3 km
Apogee: 36,221.6 km
Inclination: 2.4 °
Period: 1,454.1 minutes
Semi major axis: 42515 km
RCS: 43.0775 m2 (large)
Launch date: June 6, 2003
Source: SOCIETE EUROPEENNE DES SATELLITES (SES)
Launch site: TYURATAM MISSILE AND SPACE COMPLEX (TTMTR)

Television programmers, government agencies and enterprise networks; 24 Ku-band; CONUS and Mexico.
aabbcc
Your satellite tracking list
Your tracking list is empty




NASA's NSSDC Master Catalog

Two Line Element Set (TLE):
1 27820U 03024A   20147.23591269 -.00000165  00000-0  00000+0 0  9991
2 27820   2.4203  87.2018 0018142 292.2690 309.2214  0.99033721 62029
Source of the keplerian elements: AFSPC